• în România
  • Lista ţărilor
  • Pe 7 zile
  • Temperatura apei
  • Hartă satelitară
  • Meteo pe hartă
  • Widget-uri
  • user-avatar
    Intrare

    Meteo pe oră la Bolshaya Ivanovka

    Astăzi, 23 Octombrie, Marţi

    Timp Temperatura Precipitaţii Vânt Presiune Umiditate
    00:00 +7°C° 0 mm 4 m/s 739 mmHg 56%
    01:00 +8°C° 0 mm 3 m/s 739 mmHg 57%
    02:00 +7°C° 0 mm 4 m/s 738 mmHg 57%
    03:00 +7°C° 0 mm 4 m/s 738 mmHg 62%
    04:00 +7°C° 0 mm 4 m/s 737 mmHg 63%
    05:00 +6°C° 0 mm 4 m/s 737 mmHg 63%
    06:00 +6°C° 0 mm 4 m/s 736 mmHg 64%
    07:00 +7°C° 0.1 mm 5 m/s 736 mmHg 65%
    08:00 +7°C° 0.1 mm 5 m/s 735 mmHg 66%
    09:00 +7°C° 0.1 mm 6 m/s 735 mmHg 67%
    10:00 +7°C° 0.3 mm 6 m/s 734 mmHg 69%
    11:00 +7°C° 0.3 mm 6 m/s 733 mmHg 70%
    12:00 +7°C° 0.3 mm 6 m/s 733 mmHg 72%
    13:00 +7°C° 0.2 mm 6 m/s 732 mmHg 74%
    14:00 +8°C° 0.2 mm 6 m/s 731 mmHg 76%
    15:00 +8°C° 0.2 mm 5 m/s 731 mmHg 78%
    16:00 +8°C° 0.1 mm 5 m/s 730 mmHg 81%
    17:00 +8°C° 0.1 mm 4 m/s 730 mmHg 83%
    18:00 +8°C° 0.1 mm 4 m/s 730 mmHg 86%
    19:00 +8°C° 0 mm 4 m/s 730 mmHg 88%
    20:00 +8°C° 0 mm 3 m/s 729 mmHg 90%
    21:00 +8°C° 0 mm 3 m/s 729 mmHg 92%
    22:00 +8°C° 0 mm 3 m/s 729 mmHg 92%
    23:00 +7°C° 0 mm 3 m/s 728 mmHg 93%

    Mâine, 24 Octombrie, Miercuri

    Timp Temperatura Precipitaţii Vânt Presiune Umiditate
    00:00 +5°C° 0 mm 3 m/s 728 mmHg 93%
    01:00 +5°C° 0 mm 3 m/s 728 mmHg 92%
    02:00 +5°C° 0 mm 3 m/s 728 mmHg 91%
    03:00 +4°C° 0 mm 3 m/s 728 mmHg 91%
    04:00 +4°C° 0 mm 3 m/s 727 mmHg 90%
    05:00 +4°C° 0 mm 3 m/s 727 mmHg 89%
    06:00 +4°C° 0 mm 4 m/s 726 mmHg 88%
    07:00 +5°C° 0 mm 4 m/s 726 mmHg 80%
    08:00 +6°C° 0 mm 5 m/s 726 mmHg 72%
    09:00 +7°C° 0 mm 6 m/s 726 mmHg 65%
    10:00 +8°C° 0 mm 6 m/s 726 mmHg 60%
    11:00 +9°C° 0 mm 7 m/s 725 mmHg 56%
    12:00 +11°C° 0 mm 7 m/s 725 mmHg 51%
    13:00 +11°C° 0 mm 7 m/s 725 mmHg 52%
    14:00 +11°C° 0 mm 7 m/s 724 mmHg 52%
    15:00 +11°C° 0 mm 7 m/s 724 mmHg 52%
    16:00 +11°C° 0 mm 6 m/s 723 mmHg 56%
    17:00 +10°C° 0 mm 6 m/s 723 mmHg 60%
    18:00 +10°C° 0 mm 6 m/s 722 mmHg 64%
    19:00 +10°C° 0.3 mm 6 m/s 722 mmHg 69%
    20:00 +10°C° 0.3 mm 6 m/s 722 mmHg 74%
    21:00 +10°C° 0.3 mm 7 m/s 721 mmHg 79%
    22:00 +10°C° 0.3 mm 6 m/s 721 mmHg 81%
    23:00 +10°C° 0.3 mm 6 m/s 721 mmHg 82%

    Poimâine, 25 Octombrie, Joi

    Timp Temperatura Precipitaţii Vânt Presiune Umiditate
    00:00 +10°C° 0.3 mm 5 m/s 721 mmHg 84%
    01:00 +10°C° 0.3 mm 6 m/s 720 mmHg 85%
    02:00 +10°C° 0.3 mm 6 m/s 720 mmHg 87%
    03:00 +10°C° 0.3 mm 6 m/s 720 mmHg 89%
    04:00 +10°C° 1.3 mm 7 m/s 719 mmHg 88%
    05:00 +10°C° 1.3 mm 8 m/s 719 mmHg 87%
    06:00 +10°C° 1.3 mm 8 m/s 718 mmHg 86%
    07:00 +10°C° 0.3 mm 8 m/s 718 mmHg 86%
    08:00 +10°C° 0.3 mm 7 m/s 718 mmHg 86%
    09:00 +10°C° 0.3 mm 7 m/s 718 mmHg 85%
    10:00 +11°C° 0.2 mm 7 m/s 718 mmHg 83%
    11:00 +11°C° 0.2 mm 7 m/s 718 mmHg 80%
    12:00 +11°C° 0.2 mm 7 m/s 718 mmHg 78%
    13:00 +11°C° 0.2 mm 6 m/s 718 mmHg 78%
    14:00 +11°C° 0.2 mm 6 m/s 718 mmHg 79%
    15:00 +10°C° 0.2 mm 6 m/s 718 mmHg 79%
    16:00 +9°C° 0.2 mm 5 m/s 719 mmHg 78%
    17:00 +8°C° 0.2 mm 5 m/s 719 mmHg 76%
    18:00 +7°C° 0.2 mm 4 m/s 719 mmHg 75%
    19:00 +6°C° 0 mm 4 m/s 719 mmHg 75%
    20:00 +6°C° 0 mm 4 m/s 720 mmHg 75%
    21:00 +6°C° 0 mm 4 m/s 720 mmHg 76%
    22:00 +5°C° 0 mm 4 m/s 720 mmHg 78%
    23:00 +5°C° 0 mm 4 m/s 721 mmHg 79%

    26 Octombrie, Vineri

    Timp Temperatura Precipitaţii Vânt Presiune Umiditate
    00:00 +5°C° 0 mm 4 m/s 721 mmHg 81%
    01:00 +4°C° 0 mm 3 m/s 721 mmHg 81%
    02:00 +4°C° 0 mm 3 m/s 721 mmHg 81%
    03:00 +4°C° 0 mm 3 m/s 722 mmHg 81%
    04:00 +4°C° 0 mm 3 m/s 722 mmHg 81%
    05:00 +3°C° 0 mm 3 m/s 722 mmHg 81%
    06:00 +3°C° 0 mm 4 m/s 722 mmHg 81%
    07:00 +3°C° 0 mm 4 m/s 723 mmHg 79%
    08:00 +3°C° 0 mm 5 m/s 723 mmHg 77%
    09:00 +3°C° 0 mm 5 m/s 724 mmHg 74%
    10:00 +5°C° 0 mm 5 m/s 724 mmHg 70%
    11:00 +4°C° 0 mm 6 m/s 725 mmHg 66%
    12:00 +5°C° 0 mm 6 m/s 725 mmHg 62%
    13:00 +4°C° 0.1 mm 6 m/s 725 mmHg 59%
    14:00 +4°C° 0.1 mm 6 m/s 726 mmHg 57%
    15:00 +4°C° 0.1 mm 6 m/s 726 mmHg 55%
    16:00 +3°C° 0 mm 6 m/s 726 mmHg 59%
    17:00 +3°C° 0 mm 5 m/s 727 mmHg 64%
    18:00 +3°C° 0 mm 4 m/s 727 mmHg 68%
    19:00 +1°C° 0 mm 4 m/s 728 mmHg 70%
    20:00 +1°C° 0 mm 4 m/s 728 mmHg 71%
    21:00 +1°C° 0 mm 3 m/s 728 mmHg 73%
    22:00 +1°C° 0 mm 3 m/s 729 mmHg 73%
    23:00 +1°C° 0 mm 3 m/s 729 mmHg 73%

    27 Octombrie, Sâmbătă

    Timp Temperatura Precipitaţii Vânt Presiune Umiditate
    00:00 0°C° 0 mm 3 m/s 729 mmHg 73%
    01:00 0°C° 0 mm 3 m/s 730 mmHg 73%
    02:00 0°C° 0 mm 3 m/s 730 mmHg 72%
    03:00 -1°C° 0 mm 4 m/s 730 mmHg 72%
    04:00 -1°C° 0 mm 4 m/s 731 mmHg 74%
    05:00 -1°C° 0 mm 4 m/s 731 mmHg 76%
    06:00 -1°C° 0 mm 4 m/s 731 mmHg 78%
    07:00 0°C° 0 mm 5 m/s 732 mmHg 76%
    08:00 0°C° 0 mm 5 m/s 732 mmHg 74%
    09:00 +1°C° 0 mm 6 m/s 733 mmHg 72%
    10:00 +2°C° 0 mm 6 m/s 733 mmHg 70%
    11:00 +3°C° 0 mm 6 m/s 733 mmHg 69%
    12:00 +3°C° 0 mm 6 m/s 734 mmHg 67%
    13:00 +3°C° 0 mm 6 m/s 734 mmHg 64%
    14:00 +4°C° 0 mm 6 m/s 735 mmHg 62%
    15:00 +5°C° 0 mm 5 m/s 735 mmHg 59%
    16:00 +3°C° 0 mm 5 m/s 735 mmHg 64%
    17:00 +3°C° 0 mm 4 m/s 735 mmHg 69%
    18:00 +2°C° 0 mm 3 m/s 736 mmHg 74%
    19:00 +1°C° 0 mm 4 m/s 736 mmHg 75%
    20:00 +1°C° 0 mm 4 m/s 736 mmHg 77%
    21:00 +1°C° 0 mm 4 m/s 736 mmHg 78%
    22:00 +2°C° 0 mm 5 m/s 735 mmHg 76%
    23:00 +2°C° 0 mm 5 m/s 735 mmHg 75%

    28 Octombrie, Duminică

    Timp Temperatura Precipitaţii Vânt Presiune Umiditate
    00:00 +2°C° 0 mm 6 m/s 735 mmHg 73%
    01:00 +3°C° 0 mm 6 m/s 735 mmHg 73%
    02:00 +3°C° 0 mm 6 m/s 734 mmHg 72%
    03:00 +3°C° 0 mm 7 m/s 734 mmHg 72%
    04:00 +4°C° 0 mm 7 m/s 734 mmHg 76%
    05:00 +4°C° 0 mm 8 m/s 733 mmHg 80%
    06:00 +5°C° 0 mm 8 m/s 733 mmHg 84%
    07:00 +6°C° 0.2 mm 8 m/s 733 mmHg 85%
    08:00 +7°C° 0.2 mm 8 m/s 733 mmHg 87%
    09:00 +9°C° 0.2 mm 8 m/s 733 mmHg 88%
    10:00 +9°C° 0.4 mm 8 m/s 733 mmHg 87%
    11:00 +9°C° 0.4 mm 8 m/s 733 mmHg 86%
    12:00 +10°C° 0.4 mm 9 m/s 733 mmHg 84%
    13:00 +10°C° 0.2 mm 8 m/s 734 mmHg 84%
    14:00 +10°C° 0.2 mm 8 m/s 734 mmHg 84%
    15:00 +10°C° 0.2 mm 7 m/s 734 mmHg 83%
    16:00 +9°C° 0.1 mm 6 m/s 735 mmHg 84%
    17:00 +9°C° 0.1 mm 5 m/s 735 mmHg 86%
    18:00 +10°C° 0.1 mm 4 m/s 736 mmHg 87%
    19:00 +10°C° 0.1 mm 4 m/s 737 mmHg 88%
    20:00 +9°C° 0.1 mm 3 m/s 737 mmHg 89%
    21:00 +9°C° 0.1 mm 2 m/s 737 mmHg 90%
    22:00 +9°C° 0.2 mm 2 m/s 738 mmHg 89%
    23:00 +9°C° 0.2 mm 1 m/s 738 mmHg 88%

    29 Octombrie, Luni

    Timp Temperatura Precipitaţii Vânt Presiune Umiditate
    00:00 +9°C° 0.2 mm 1 m/s 738 mmHg 87%
    01:00 +9°C° 0.1 mm 1 m/s 739 mmHg 86%
    02:00 +9°C° 0.1 mm 1 m/s 739 mmHg 86%
    03:00 +8°C° 0.1 mm 1 m/s 739 mmHg 86%
    04:00 +7°C° 0.2 mm 2 m/s 739 mmHg 86%
    05:00 +7°C° 0.2 mm 2 m/s 740 mmHg 87%
    06:00 +7°C° 0.2 mm 2 m/s 740 mmHg 87%
    07:00 +7°C° 0.1 mm 3 m/s 740 mmHg 87%
    08:00 +7°C° 0.1 mm 3 m/s 740 mmHg 86%
    09:00 +7°C° 0.1 mm 3 m/s 741 mmHg 86%
    10:00 +8°C° 0 mm 3 m/s 741 mmHg 84%
    11:00 +9°C° 0 mm 3 m/s 741 mmHg 83%
    12:00 +9°C° 0 mm 3 m/s 741 mmHg 82%
    13:00 +10°C° 0 mm 3 m/s 741 mmHg 80%
    14:00 +11°C° 0 mm 3 m/s 741 mmHg 79%
    15:00 +12°C° 0 mm 3 m/s 741 mmHg 77%
    16:00 +11°C° 0 mm 3 m/s 741 mmHg 80%
    17:00 +10°C° 0 mm 3 m/s 741 mmHg 83%
    18:00 +9°C° 0 mm 2 m/s 741 mmHg 86%
    19:00 +9°C° 0 mm 2 m/s 741 mmHg 86%
    20:00 +9°C° 0 mm 2 m/s 741 mmHg 85%
    21:00 +9°C° 0 mm 2 m/s 741 mmHg 84%
    22:00 +8°C° 0 mm 2 m/s 742 mmHg 82%
    23:00 +8°C° 0 mm 2 m/s 742 mmHg 81%
    Arată mai mult